This is the latest recevied weather packets stored in our database for station/object KB0Y. If no packets are shown the sender has not sent any weather packets the latest 10 day(s).
| Time | Temp. | Humidity | Pressure | Rain* | Wind** | Luminosity | Snow |
|---|---|---|---|---|---|---|---|
| 1777336450 | 22.22° C | 77% | 1023.1 hPa | 0 mm | - | 0 W/m² | - |
| 1777336147 | 22.22° C | 77% | 1023.4 hPa | 0 mm | - | 0 W/m² | - |
| 1777335844 | 22.78° C | 77% | 1023.1 hPa | 0 mm | - | 0 W/m² | - |
| 1777335541 | 22.78° C | 76% | 1023.1 hPa | 0 mm | - | 0 W/m² | - |
| 1777335237 | 22.78° C | 75% | 1022.8 hPa | 0 mm | - | 0 W/m² | - |
| 1777334935 | 23.33° C | 74% | 1022.8 hPa | 0 mm | - | 0 W/m² | - |
| 1777334633 | 23.33° C | 73% | 1022.8 hPa | 0 mm | - | 3 W/m² | - |
| 1777334330 | 23.89° C | 73% | 1022.8 hPa | 0 mm | - | 7 W/m² | - |
| 1777334025 | 23.89° C | 71% | 1022.8 hPa | 0 mm | - | 11 W/m² | - |
| 1777333721 | 24.44° C | 71% | 1022.4 hPa | 0 mm | - | 18 W/m² | - |
| 1777333418 | 24.44° C | 70% | 1022.4 hPa | 0 mm | - | 24 W/m² | - |
| 1777333116 | 25° C | 69% | 1022.4 hPa | 0 mm | - | 28 W/m² | - |
| 1777332813 | 25° C | 68% | 1022.4 hPa | 0 mm | - | 34 W/m² | - |
| 1777332510 | 25.56° C | 68% | 1022.4 hPa | 0 mm | - | 39 W/m² | - |
| 1777332206 | 25.56° C | 67% | 1022.1 hPa | 0 mm | - | 45 W/m² | - |
| 1777331904 | 25.56° C | 67% | 1022.1 hPa | 0 mm | - | 48 W/m² | - |
| 1777331601 | 26.11° C | 65% | 1022.1 hPa | 0 mm | - | 71 W/m² | - |
| 1777331298 | 26.11° C | 64% | 1022.1 hPa | 0 mm | - | 97 W/m² | - |
| 1777330995 | 26.11° C | 63% | 1022.1 hPa | 0 mm | - | 177 W/m² | - |
| 1777330692 | 26.11° C | 64% | 1021.6 hPa | 0 mm | - | 216 W/m² | - |
| 1777330390 | 26.11° C | 64% | 1022.1 hPa | 0 mm | - | 233 W/m² | - |
| 1777330087 | 26.11° C | 63% | 1021.6 hPa | 0 mm | - | 253 W/m² | - |
| 1777329786 | 26.11° C | 64% | 1022.1 hPa | 0 mm | - | 277 W/m² | - |
| 1777329484 | 26.11° C | 63% | 1022.1 hPa | 0 mm | - | 291 W/m² | - |
| 1777329181 | 26.67° C | 62% | 1022.1 hPa | 0 mm | - | 305 W/m² | - |
* Rain latest hour (hover to see other rain measurements)
** Current wind speed in m/s (hover to see current wind gust speed)